Georgetown, SC

9:01 AM EDT on August 21, 2017 (GMT -0400)
Georgetown County

Weather History for KGGE - October, 2011

Change the Weather History Date:

Saturday, October 8, 2011

  Actual Average Record
Temperature  
Mean Temperature 68 °F -  
Max Temperature 78 °F 79 °F 87 °F (2014)
Min Temperature 59 °F 56 °F 50 °F (2010)
Cooling Degree Days 4    
Growing Degree Days 18 (Base 50)    
Moisture  
Dew Point 52 °F    
Average Humidity 60    
Maximum Humidity 88    
Minimum Humidity 28    
Precipitation  
Precipitation 0.00 in - - ()
Sea Level Pressure  
Sea Level Pressure 30.36 in    
Wind  
Wind Speed 10 mph (NE)    
Max Wind Speed 15 mph    
Max Gust Speed 21 mph    
Visibility 10 miles    
Events      
Averages and records for this station are not official NWS values.
T = Trace of Precipitation, MM = Missing Value Source: NWS Daily Summary

Daily Weather History Graph

Daily Weather History Graph

Search for Another Location

Airport or City:

Trip Planner

Search our weather history database for the weather conditions in past years. The results will help you decide how hot, cold, wet, or windy it might be!

Date:

Astronomy

Oct. 08, 2011 Rise Set
Actual Time 7:16 AM EDT 6:52 PM EDT
Civil Twilight 6:51 AM EDT 7:17 PM EDT
Nautical Twilight 6:22 AM EDT 7:46 PM EDT
Astronomical Twilight 5:53 AM EDT 8:15 PM EDT
Moon 4:56 PM EDT (10/8) 4:10 AM EDT (10/8)
Length of Visible Light 12h 26m
Length of Day
11h 36m
Waxing Gibbous, 90% of the Moon is Illuminated
Oct 8
Waxing Gibbous
Oct 11
Full
Oct 19
Last Quarter
Oct 26
New
Nov 2
First Quarter

Hourly Weather History & Observations

Time (EDT) Temp. Dew Point Humidity Pressure Visibility Wind Dir Wind Speed Gust Speed Precip Events Conditions
12:15 AM 68.0 °F 60.8 °F 78% 30.35 in 10.0 mi NE 9.2 mph - N/A   Mostly Cloudy
12:35 AM 68.0 °F 60.8 °F 78% 30.35 in 10.0 mi NE 9.2 mph - N/A   Mostly Cloudy
12:55 AM 68.0 °F 60.8 °F 78% 30.35 in 10.0 mi NE 10.4 mph - N/A   Overcast
1:15 AM 68.0 °F 60.8 °F 78% 30.34 in 10.0 mi NE 10.4 mph 16.1 mph N/A   Overcast
1:35 AM 66.2 °F 60.8 °F 83% 30.35 in 10.0 mi NNE 8.1 mph - N/A   Overcast
1:55 AM 64.4 °F 60.8 °F 88% 30.35 in 10.0 mi NNE 8.1 mph - N/A   Mostly Cloudy
2:15 AM 64.4 °F 60.8 °F 88% 30.35 in 10.0 mi NNE 8.1 mph - N/A   Mostly Cloudy
2:35 AM 64.4 °F 60.8 °F 88% 30.35 in 10.0 mi NNE 8.1 mph - N/A   Mostly Cloudy
2:55 AM 66.2 °F 60.8 °F 83% 30.35 in 10.0 mi NNE 6.9 mph - N/A   Scattered Clouds
3:15 AM 64.4 °F 60.8 °F 88% 30.35 in 10.0 mi NNE 8.1 mph - N/A   Mostly Cloudy
3:35 AM 64.4 °F 60.8 °F 88% 30.34 in 10.0 mi NNE 8.1 mph - N/A   Overcast
3:55 AM 64.4 °F 60.8 °F 88% 30.34 in 10.0 mi NNE 8.1 mph - N/A   Overcast
4:15 AM 64.4 °F 59.0 °F 83% 30.34 in 10.0 mi NNE 9.2 mph - N/A   Overcast
4:35 AM 62.6 °F 59.0 °F 88% 30.34 in 10.0 mi NNE 9.2 mph - N/A   Overcast
4:55 AM 62.6 °F 59.0 °F 88% 30.34 in 10.0 mi NNE 8.1 mph - N/A   Mostly Cloudy
5:15 AM 62.6 °F 59.0 °F 88% 30.35 in 10.0 mi NNE 11.5 mph - N/A   Mostly Cloudy
5:35 AM 60.8 °F 57.2 °F 88% 30.36 in 10.0 mi NNE 9.2 mph - N/A   Scattered Clouds
5:55 AM 60.8 °F 57.2 °F 88% 30.36 in 10.0 mi NNE 9.2 mph - N/A   Scattered Clouds
6:35 AM 60.8 °F 55.4 °F 82% 30.37 in 10.0 mi NNE 8.1 mph - N/A   Clear
6:55 AM 59.0 °F 53.6 °F 82% 30.37 in 10.0 mi NNE 6.9 mph - N/A   Clear
7:15 AM 59.0 °F 51.8 °F 77% 30.37 in 10.0 mi NNE 9.2 mph - N/A   Clear
7:35 AM 59.0 °F 51.8 °F 77% 30.38 in 10.0 mi NNE 10.4 mph - N/A   Clear
7:55 AM 59.0 °F 51.8 °F 77% 30.39 in 10.0 mi NNE 10.4 mph - N/A   Clear
8:15 AM 60.8 °F 51.8 °F 72% 30.39 in 10.0 mi NNE 11.5 mph - N/A   Clear
8:35 AM 62.6 °F 51.8 °F 68% 30.39 in 10.0 mi NNE 10.4 mph - N/A   Clear
8:55 AM 62.6 °F 51.8 °F 68% 30.39 in 10.0 mi NNE 10.4 mph - N/A   Clear
9:15 AM 64.4 °F 50.0 °F 59% 30.40 in 10.0 mi NE 11.5 mph - N/A   Clear
9:35 AM 66.2 °F 50.0 °F 56% 30.41 in 10.0 mi NE 12.7 mph - N/A   Clear
9:55 AM 68.0 °F 50.0 °F 52% 30.41 in 10.0 mi NNE 12.7 mph 18.4 mph N/A   Clear
10:15 AM 69.8 °F 50.0 °F 49% 30.41 in 10.0 mi NNE 15.0 mph 19.6 mph N/A   Clear
10:55 AM 71.6 °F 46.4 °F 41% 30.41 in 10.0 mi ENE 11.5 mph 18.4 mph N/A   Clear
11:15 AM 73.4 °F 46.4 °F 38% 30.41 in 10.0 mi NE 11.5 mph 17.3 mph N/A   Clear
11:35 AM 73.4 °F 44.6 °F 36% 30.40 in 10.0 mi NE 9.2 mph 17.3 mph N/A   Clear
11:55 AM 75.2 °F 42.8 °F 31% 30.40 in 10.0 mi NNE 12.7 mph 16.1 mph N/A   Clear
12:15 PM 77.0 °F 44.6 °F 32% 30.40 in 10.0 mi NE 13.8 mph 18.4 mph N/A   Clear
12:35 PM 77.0 °F 42.8 °F 29% 30.39 in 10.0 mi NE 9.2 mph 18.4 mph N/A   Clear
12:55 PM 77.0 °F 41.0 °F 28% 30.39 in 10.0 mi ENE 11.5 mph 18.4 mph N/A   Clear
1:15 PM 77.0 °F 42.8 °F 29% 30.38 in 10.0 mi NE 9.2 mph 19.6 mph N/A   Clear
1:35 PM 77.0 °F 44.6 °F 32% 30.37 in 10.0 mi ENE 10.4 mph - N/A   Clear
1:55 PM 78.8 °F 48.2 °F 34% 30.36 in 10.0 mi ENE 15.0 mph 20.7 mph N/A   Clear
2:35 PM 78.8 °F 51.8 °F 39% 30.34 in 10.0 mi NE 13.8 mph 17.3 mph N/A   Scattered Clouds
2:55 PM 77.0 °F 51.8 °F 41% 30.34 in 10.0 mi ENE 8.1 mph 19.6 mph N/A   Scattered Clouds
3:35 PM 75.2 °F 51.8 °F 44% 30.33 in 10.0 mi NE 15.0 mph 19.6 mph N/A   Scattered Clouds
3:55 PM 73.4 °F 51.8 °F 47% 30.32 in 10.0 mi ENE 15.0 mph 20.7 mph N/A   Scattered Clouds
4:15 PM 73.4 °F 50.0 °F 44% 30.33 in 10.0 mi ENE 11.5 mph - N/A   Mostly Cloudy
4:35 PM 73.4 °F 46.4 °F 38% 30.33 in 10.0 mi ENE 10.4 mph 19.6 mph N/A   Overcast
4:55 PM 73.4 °F 46.4 °F 38% 30.34 in 10.0 mi ENE 9.2 mph - N/A   Overcast
5:15 PM 71.6 °F 46.4 °F 41% 30.34 in 10.0 mi ENE 12.7 mph - N/A   Overcast
5:35 PM 71.6 °F 46.4 °F 41% 30.33 in 10.0 mi NE 10.4 mph 18.4 mph N/A   Overcast
5:55 PM 71.6 °F 46.4 °F 41% 30.33 in 10.0 mi NE 9.2 mph 16.1 mph N/A   Mostly Cloudy
6:15 PM 71.6 °F 48.2 °F 43% 30.33 in 10.0 mi NE 10.4 mph - N/A   Scattered Clouds
6:35 PM 69.8 °F 50.0 °F 49% 30.32 in 10.0 mi NE 10.4 mph - N/A   Clear
6:55 PM 69.8 °F 51.8 °F 53% 30.32 in 10.0 mi NNE 9.2 mph - N/A   Clear
7:15 PM 68.0 °F 51.8 °F 56% 30.33 in 10.0 mi NNE 8.1 mph - N/A   Clear
7:35 PM 68.0 °F 48.2 °F 49% 30.32 in 10.0 mi NNE 8.1 mph - N/A   Clear
7:55 PM 68.0 °F 46.4 °F 46% 30.32 in 10.0 mi NNE 8.1 mph - N/A   Clear
8:35 PM 68.0 °F 46.4 °F 46% 30.32 in 10.0 mi NNE 10.4 mph - N/A   Overcast
9:15 PM 68.0 °F 50.0 °F 52% 30.32 in 10.0 mi NE 9.2 mph - N/A   Mostly Cloudy
9:35 PM 68.0 °F 51.8 °F 56% 30.32 in 10.0 mi NE 10.4 mph - N/A   Overcast
9:55 PM 68.0 °F 53.6 °F 60% 30.32 in 10.0 mi NNE 10.4 mph - N/A   Overcast
10:15 PM 69.8 °F 53.6 °F 56% 30.32 in 10.0 mi NNE 10.4 mph - N/A   Overcast
10:35 PM 68.0 °F 55.4 °F 64% 30.32 in 10.0 mi NNE 10.4 mph - N/A   Overcast
10:55 PM 68.0 °F 55.4 °F 64% 30.31 in 10.0 mi NNE 10.4 mph - N/A   Overcast
11:35 PM 68.0 °F 55.4 °F 64% 30.30 in 10.0 mi NNE 10.4 mph - N/A   Overcast
11:55 PM 68.0 °F 57.2 °F 68% 30.30 in 10.0 mi NNE 10.4 mph 17.3 mph N/A   Overcast